Preview of NWS' New Version of Forecast
This preview is not operational and should not be used for support decisions.

Regional Weather Roundup (RWR)

Issued by National Weather Service (NWS)

                            
000
ASUS45 KCYS 251410
RWRWY 

WYOMING REGIONAL WEATHER ROUNDUP
NATIONAL WEATHER SERVICE CHEYENNE WY
800 AM MDT TUE JUN 25 2019

NOTE:  "FAIR" INDICATES FEW OR NO CLOUDS BELOW 12,000 FEET
WITH NO SIGNIFICANT WEATHER AND/OR OBSTRUCTIONS TO VISIBILITY.

WYZ001-251500-
YELLOWSTONE NATIONAL PARK
  
CITY           SKY/WX    TMP DP  RH WIND       PRES   REMARKS
LK YELLOWSTONE   N/A     44  34  67 CALM      30.10S                  
W YELLOWSTONE  NOT AVBL                                               

$$
WYZ002>013-054>058-071-098>099-251500-
NORTHERN WYOMING
  
CITY           SKY/WX    TMP DP  RH WIND       PRES   REMARKS
JACKSON        CLOUDY    43  35  73 NE3       30.09R                  
CODY           FAIR      55  41  59 CALM      29.98S                  
GREYBULL       FAIR      57  43  59 CALM      29.94S                  
WORLAND        FAIR      55  42  61 S5        29.94S                  
SHERIDAN       FAIR      60  47  61 SE5       29.93F                  
BUFFALO        FAIR      58  45  62 S17       29.96F                  
GILLETTE       FAIR      59  50  72 S10       29.97S                  
HULETT         FAIR      61  48  63 CALM      29.99                   
NEWCASTLE      FAIR      59  45  58 S12G17    30.02                   

$$
WYZ014>020-022>026-101>103-251500-
CENTRAL WYOMING
  
CITY           SKY/WX    TMP DP  RH WIND       PRES   REMARKS
BIG PINEY      FAIR      44  35  70 CALM      30.09S                  
PINEDALE       FAIR      45  34  65 CALM      30.10                   
DUBOIS         FAIR      45  32  61 N5        30.07                   
LANDER         FAIR      55  40  56 N6        29.99F                  
RIVERTON       FAIR      55  42  61 CALM      30.00S                  
CASPER         FAIR      53  47  79 S5        30.02S                  
DOUGLAS        FAIR      57  48  72 CALM      30.02S                  

$$
WYZ021-027>030-104>119-251500-
SOUTHERN WYOMING
  
CITY           SKY/WX    TMP DP  RH WIND       PRES   REMARKS
EVANSTON       FAIR      55  34  45 SE3       30.06S                  
KEMMERER       FAIR      52  36  54 N8        30.09                   
FORT BRIDGER   SUNNY     50  36  57 N5        30.11R                  
ROCK SPRINGS   FAIR      53  34  48 E3        30.07R                  
DIXON          FAIR      55  38  51 E8        30.11S                  
RAWLINS        FAIR      58  39  49 SE8       30.10R                  
SARATOGA       FAIR      54  37  54 SE13      30.13R                  
LARAMIE        FAIR      53  39  59 S7        30.14S                  
CHEYENNE       FAIR      62  42  47 W8        30.10R                  
TORRINGTON     FAIR      59  52  77 S3        30.00R                  
PINE BLUFFS    FAIR      57  43  58 W5        30.05R                  

$$